Change the Weather History Date:

Wednesday, January 2, 2013

  Actual Average Record
Temperature  
Mean Temperature 50 °F -  
Max Temperature 56 °F 54 °F 62 °F (2007)
Min Temperature 45 °F 39 °F 32 °F (2002)
Degree Days  
Heating Degree Days 14    
Moisture  
Dew Point 41 °F    
Average Humidity 74    
Maximum Humidity 87    
Minimum Humidity 50    
Precipitation  
Precipitation 0.16 in 0.11 in - ()
Sea Level Pressure  
Sea Level Pressure 30.05 in    
Wind  
Wind Speed 8 mph ()    
Max Wind Speed 15 mph    
Max Gust Speed -    
Visibility 6.9 miles    
Events Rain    
Averages and records for this station are not official NWS values.
T = Trace of Precipitation, MM = Missing Value Source: Averaged Metar Reports

Daily Weather History Graph

Daily Weather History Graph

Search for Another Location

Airport or City:

Trip Planner

Search our weather history database for the weather conditions in past years. The results will help you decide how hot, cold, wet, or windy it might be!

Date:

Astronomy

Jan. 02, 2013 Rise Set
Actual Time 8:04 AM CET 5:05 PM CET
Civil Twilight 7:32 AM CET 5:38 PM CET
Nautical Twilight 6:56 AM CET 6:14 PM CET
Astronomical Twilight 6:21 AM CET 6:49 PM CET
Moon 10:32 PM CET 10:28 AM CET
Length of Visible Light 10h 06m
Length of Day
9h 01m
Waning Gibbous, 77% of the Moon is Illuminated
Jan 2
Waning Gibbous
Jan 5
Last Quarter
Jan 11
New
Jan 19
First Quarter
Jan 27
Full

Hourly Weather History & Observations

Time (CET) Temp. Windchill Dew Point Humidity Pressure Visibility Wind Dir Wind Speed Gust Speed Precip Events Conditions
12:00 AM 46.4 °F 41.9 °F 41.0 °F 81% 29.95 in 6.2 mi NNW 9.2 mph - N/A Rain Light Rain
12:30 AM 46.4 °F 42.9 °F 41.0 °F 81% 29.95 in 6.2 mi NNW 6.9 mph - N/A Rain Light Rain
1:00 AM 47 °F - 41 °F 71% 29.96 in 9 mi NNW 6.9 mph - - Rain Light Rain
1:00 AM 46.4 °F 42.9 °F 41.0 °F 81% 29.95 in 6.2 mi NNW 6.9 mph - N/A Rain Light Rain
1:30 AM 46.4 °F 42.9 °F 41.0 °F 81% 29.95 in 6.2 mi NNW 6.9 mph - N/A Rain Light Rain
2:00 AM 46.4 °F 41.5 °F 41.0 °F 81% 29.95 in 6.2 mi North 10.4 mph - N/A Rain Light Rain
2:30 AM 46.4 °F 42.9 °F 41.0 °F 81% 29.95 in 6.2 mi NNW 6.9 mph - N/A Rain Light Rain
3:00 AM 46.4 °F 42.9 °F 41.0 °F 81% 29.95 in 3.7 mi NNW 6.9 mph - N/A Rain Light Rain
3:30 AM 46.4 °F 41.9 °F 41.0 °F 81% 29.95 in 6.2 mi NNW 9.2 mph - N/A Rain Light Rain
4:00 AM 46.4 °F 43.5 °F 42.8 °F 87% 29.95 in 6.2 mi North 5.8 mph - N/A Rain Light Rain
4:30 AM 46.4 °F 42.4 °F 42.8 °F 87% 29.95 in 6.2 mi NNW 8.1 mph - N/A Rain Light Rain
5:00 AM 46.4 °F 41.5 °F 41.0 °F 81% 29.95 in 6.2 mi NNW 10.4 mph - N/A   Mostly Cloudy
5:30 AM 46.4 °F 41.9 °F 41.0 °F 81% 29.95 in 6.2 mi NNW 9.2 mph - N/A   Mostly Cloudy
6:00 AM 46.4 °F 41.5 °F 41.0 °F 81% 29.95 in 6.2 mi NNW 10.4 mph - N/A   Mostly Cloudy
6:30 AM 46.4 °F 41.9 °F 41.0 °F 81% 29.95 in 6.2 mi NNW 9.2 mph - N/A   Mostly Cloudy
7:00 AM 46 °F - 40 °F 73% 29.98 in 16 mi NNW 9.2 mph - -   Partly Cloudy
7:00 AM 46.4 °F 41.9 °F 41.0 °F 81% 29.98 in 6.2 mi NNW 9.2 mph - N/A   Mostly Cloudy
7:30 AM 46.4 °F 41.9 °F 39.2 °F 76% 29.98 in 6.2 mi NNW 9.2 mph - N/A   Mostly Cloudy
8:00 AM 46.4 °F 41.9 °F 39.2 °F 76% 29.98 in 6.2 mi NNW 9.2 mph - N/A   Mostly Cloudy
8:30 AM 46.4 °F 41.5 °F 39.2 °F 76% 29.98 in 6.2 mi NNW 10.4 mph - N/A   Mostly Cloudy
8:51 AM 46.4 °F 40.7 °F 39.2 °F 76% 30.01 in 6.2 mi NNW 12.7 mph - N/A   Mostly Cloudy
9:30 AM 46.4 °F 41.1 °F 39.2 °F 76% 30.01 in 6.2 mi NNW 11.5 mph - N/A   Mostly Cloudy
10:00 AM 46.4 °F 42.9 °F 39.2 °F 76% 30.01 in 6.2 mi NNW 6.9 mph - N/A   Mostly Cloudy
10:36 AM 48.2 °F - 39.2 °F 71% 30.04 in 6.2 mi NNW 10.4 mph - N/A   Mostly Cloudy
11:00 AM 48.2 °F - 39.2 °F 71% 30.04 in 6.2 mi NNW 10.4 mph - N/A   Mostly Cloudy
11:30 AM 48.2 °F - 39.2 °F 71% 30.04 in 6.2 mi NW 12.7 mph - N/A   Mostly Cloudy
12:00 PM 50.0 °F - 39.2 °F 66% 30.01 in 6.2 mi NW 11.5 mph - N/A   Mostly Cloudy
12:30 PM 51.8 °F - 41.0 °F 67% 30.01 in 6.2 mi NW 9.2 mph - N/A   Mostly Cloudy
1:00 PM 54 °F - 41 °F 50% 30.02 in 19 mi NW 6.9 mph - -   Scattered Clouds
1:00 PM 53.6 °F - 41.0 °F 62% 30.01 in 6.2 mi NW 8.1 mph - N/A   Mostly Cloudy
1:30 PM 55.4 °F - 42.8 °F 63% 30.01 in 6.2 mi West 5.8 mph - N/A   Scattered Clouds
2:00 PM 55.4 °F - 41.0 °F 58% 30.01 in 6.2 mi WSW 6.9 mph - N/A   Scattered Clouds
2:30 PM 55.4 °F - 42.8 °F 63% 30.01 in 6.2 mi WSW 8.1 mph - N/A   Scattered Clouds
3:00 PM 55.4 °F - 42.8 °F 63% 30.01 in 6.2 mi WSW 9.2 mph - N/A   Mostly Cloudy
3:30 PM 55.4 °F - 42.8 °F 63% 30.04 in 6.2 mi SW 6.9 mph - N/A   Mostly Cloudy
4:00 PM 55.4 °F - 44.6 °F 67% 30.04 in 6.2 mi SSW 8.1 mph - N/A   Mostly Cloudy
4:30 PM 55.4 °F - 44.6 °F 67% 30.06 in 6.2 mi SSW 9.2 mph - N/A   Mostly Cloudy
5:00 PM 55.4 °F - 42.8 °F 63% 30.06 in 6.2 mi SSW 9.2 mph - N/A   Mostly Cloudy
5:30 PM 55.4 °F - 42.8 °F 63% 30.09 in 6.2 mi SSW 8.1 mph - N/A   Mostly Cloudy
6:00 PM 53.6 °F - 42.8 °F 67% 30.12 in 6.2 mi SSW 6.9 mph - N/A   Mostly Cloudy
6:30 PM 53.6 °F - 42.8 °F 67% 30.12 in 6.2 mi SW 5.8 mph - N/A   Mostly Cloudy
7:00 PM 49 °F - 43 °F 71% 30.17 in 19 mi NW 6.9 mph - -   Scattered Clouds
7:00 PM 50.0 °F - 42.8 °F 76% 30.15 in 6.2 mi NNW 6.9 mph - N/A   Scattered Clouds
7:30 PM 48.2 °F - 42.8 °F 82% 30.18 in 6.2 mi NNW 8.1 mph - N/A   Scattered Clouds
8:00 PM 48.2 °F - 41.0 °F 76% 30.18 in 6.2 mi NNW 8.1 mph - N/A   Mostly Cloudy
8:30 PM 48.2 °F - 41.0 °F 76% 30.21 in 6.2 mi NNW 11.5 mph - N/A   Partly Cloudy
9:00 PM 46.4 °F 41.9 °F 41.0 °F 81% 30.21 in 6.2 mi NNW 9.2 mph - N/A   Scattered Clouds
9:30 PM 46.4 °F 41.5 °F 41.0 °F 81% 30.24 in 6.2 mi NNW 10.4 mph - N/A   Scattered Clouds
10:00 PM 46.4 °F 40.4 °F 39.2 °F 76% 30.24 in 6.2 mi NNW 13.8 mph - N/A   Scattered Clouds
10:30 PM 46.4 °F 40.4 °F 39.2 °F 76% 30.27 in 6.2 mi NNW 13.8 mph - N/A   Partly Cloudy
11:00 PM 46.4 °F 41.5 °F 39.2 °F 76% 30.27 in 6.2 mi NNW 10.4 mph - N/A   Scattered Clouds
11:30 PM 46.4 °F 40.1 °F 37.4 °F 71% 30.30 in 6.2 mi NNW 15.0 mph - N/A   Scattered Clouds